This is the latest recevied weather packets stored in our database for station/object KA7EII-13. If no packets are shown the sender has not sent any weather packets the latest 10 day(s).
| Time | Temp. | Humidity | Pressure | Rain* | Wind** | Luminosity | Snow |
|---|---|---|---|---|---|---|---|
| 1777485555 | 13.33° C | 43% | 1109.2 hPa | 0 mm | - | 773 W/m² | - |
| 1777485252 | 13.33° C | 43% | 1109.1 hPa | 0 mm | - | 717 W/m² | - |
| 1777484948 | 13.33° C | 41% | 1109.1 hPa | 0 mm | - | 760 W/m² | - |
| 1777484645 | 13.33° C | 43% | 1109.2 hPa | 0 mm | - | 636 W/m² | - |
| 1777484342 | 12.78° C | 42% | 1109.3 hPa | 0 mm | - | 817 W/m² | - |
| 1777484037 | 12.78° C | 43% | 1109.3 hPa | 0 mm | - | 733 W/m² | - |
| 1777483734 | 12.22° C | 46% | 1109.7 hPa | 0 mm | - | 728 W/m² | - |
| 1777483430 | 12.78° C | 46% | 1109.5 hPa | 0 mm | - | 667 W/m² | - |
| 1777483125 | 12.22° C | 46% | 1109.7 hPa | 0 mm | - | 655 W/m² | - |
| 1777482823 | 12.78° C | 47% | 1109.7 hPa | 0 mm | - | 773 W/m² | - |
| 1777482518 | 11.67° C | 53% | 1109.4 hPa | 0 mm | - | 734 W/m² | - |
| 1777482216 | 12.22° C | 49% | 1109.7 hPa | 0 mm | - | 704 W/m² | - |
| 1777481913 | 11.67° C | 50% | 1109.4 hPa | 0 mm | - | 511 W/m² | - |
| 1777481611 | 12.78° C | 48% | 1109.7 hPa | 0 mm | - | 537 W/m² | - |
| 1777481308 | 11.67° C | 49% | 1109.7 hPa | 0 mm | - | 713 W/m² | - |
| 1777481003 | 11.67° C | 51% | 1109.9 hPa | 0 mm | - | 733 W/m² | - |
| 1777480700 | 11.11° C | 48% | 1109.8 hPa | 0 mm | - | 604 W/m² | - |
| 1777480397 | 10° C | 51% | 1109.5 hPa | 0 mm | - | 431 W/m² | - |
| 1777480087 | 10° C | 53% | 1109.8 hPa | 0 mm | - | 526 W/m² | - |
| 1777479783 | 10.56° C | 50% | 1109.8 hPa | 0 mm | - | 441 W/m² | - |
| 1777479481 | 10.56° C | 50% | 1109.7 hPa | 0 mm | - | 547 W/m² | - |
| 1777479177 | 11.11° C | 51% | 1110 hPa | 0 mm | - | 632 W/m² | - |
| 1777478874 | 10.56° C | 48% | 1109.8 hPa | 0 mm | - | 619 W/m² | - |
| 1777478570 | 10.56° C | 52% | 1109.8 hPa | 0 mm | - | 550 W/m² | - |
| 1777478268 | 10.56° C | 51% | 1109.9 hPa | 0 mm | - | 561 W/m² | - |
* Rain latest hour (hover to see other rain measurements)
** Current wind speed in m/s (hover to see current wind gust speed)